Weather History for KFMM - April, 2013

Change the Weather History Date:

Tuesday, April 2, 2013

  Actual Average (KAKO) Record (KAKO)
Temperature  
Mean Temperature 40 °F 43 °F  
Max Temperature 46 °F 57 °F 85 °F (2011)
Min Temperature 33 °F 30 °F -3 °F (1975)
Degree Days  
Heating Degree Days 26    
Month to date heating degree days  
Cooling Degree Days 0    
Month to date cooling degree days  
Moisture  
Dew Point 30 °F    
Average Humidity 72    
Maximum Humidity 96    
Minimum Humidity 53    
Precipitation  
Precipitation 0.00 in 0.04 in 1.55 in (1964)
Month to date precipitation 0.08  
Year to date precipitation 1.69  
Sea Level Pressure  
Sea Level Pressure 30.11 in    
Wind  
Wind Speed 9 mph (SE)    
Max Wind Speed 16 mph    
Max Gust Speed 21 mph    
Visibility 10 miles    
Events      
T = Trace of Precipitation, MM = Missing Value Source: NWS Daily Summary

Daily Weather History Graph

Daily Weather History Graph

Search for Another Location

Airport or City:

Trip Planner

Search our weather history database for the weather conditions in past years. The results will help you decide how hot, cold, wet, or windy it might be!

Date:

Astronomy

Apr. 02, 2013 Rise Set
Actual Time 6:36 AM MDT 7:21 PM MDT
Civil Twilight 6:09 AM MDT 7:48 PM MDT
Nautical Twilight 5:36 AM MDT 8:21 PM MDT
Astronomical Twilight 5:03 AM MDT 8:54 PM MDT
Moon 1:28 AM MDT (4/2) 11:29 AM MDT (4/2)
Length of Visible Light 13h 39m
Length of Day
12h 44m
Waning Gibbous, 55% of the Moon is Illuminated
Apr 2
Waning Gibbous
Apr 2
Last Quarter
Apr 10
New
Apr 18
First Quarter
Apr 25
Full

Hourly Weather History & Observations

Time (MDT) Temp. Windchill Dew Point Humidity Pressure Visibility Wind Dir Wind Speed Gust Speed Precip Events Conditions
12:15 AM 35.1 °F 28.6 °F 29.1 °F 79% 30.12 in 10.0 mi SE 8.1 mph - N/A   Clear
12:35 AM 35.1 °F 28.6 °F 29.3 °F 80% 30.12 in 10.0 mi SE 8.1 mph - N/A   Scattered Clouds
12:55 AM 35.6 °F 29.2 °F 30.9 °F 83% 30.12 in 10.0 mi SE 8.1 mph - N/A   Mostly Cloudy
1:15 AM 33.1 °F 26.1 °F 30.0 °F 89% 30.11 in 10.0 mi East 8.1 mph - N/A   Scattered Clouds
1:35 AM 33.8 °F 26.4 °F 31.1 °F 90% 30.11 in 10.0 mi ESE 9.2 mph - N/A   Mostly Cloudy
1:55 AM 34.0 °F 27.2 °F 31.5 °F 90% 30.11 in 10.0 mi East 8.1 mph - N/A   Mostly Cloudy
2:15 AM 33.8 °F 27.0 °F 31.5 °F 91% 30.10 in 10.0 mi East 8.1 mph - N/A   Mostly Cloudy
2:35 AM 34.2 °F 28.2 °F 31.8 °F 91% 30.10 in 10.0 mi East 6.9 mph - N/A   Overcast
2:55 AM 34.7 °F 28.1 °F 31.8 °F 89% 30.09 in 10.0 mi East 8.1 mph - N/A   Overcast
3:15 AM 35.4 °F 29.0 °F 30.4 °F 82% 30.09 in 10.0 mi ESE 8.1 mph - N/A   Overcast
3:35 AM 35.8 °F 28.8 °F 30.0 °F 80% 30.09 in 10.0 mi ESE 9.2 mph - N/A   Overcast
3:55 AM 36.7 °F 31.2 °F 28.8 °F 73% 30.09 in 10.0 mi ESE 6.9 mph - N/A   Overcast
4:15 AM 36.5 °F 30.3 °F 27.9 °F 71% 30.09 in 10.0 mi SE 8.1 mph - N/A   Overcast
4:35 AM 36.7 °F 30.5 °F 27.5 °F 69% 30.09 in 10.0 mi SE 8.1 mph - N/A   Overcast
4:55 AM 36.9 °F 28.7 °F 27.5 °F 69% 30.09 in 10.0 mi SSE 12.7 mph - N/A   Overcast
5:15 AM 36.9 °F 28.7 °F 28.2 °F 71% 30.09 in 10.0 mi SSE 12.7 mph - N/A   Overcast
5:35 AM 36.9 °F 30.1 °F 28.4 °F 71% 30.09 in 10.0 mi SSE 9.2 mph - N/A   Overcast
5:55 AM 36.9 °F 31.4 °F 28.0 °F 70% 30.09 in 10.0 mi SE 6.9 mph - N/A   Overcast
6:15 AM 36.7 °F 31.2 °F 27.5 °F 69% 30.09 in 10.0 mi SE 6.9 mph - N/A   Overcast
6:35 AM 36.5 °F 31.0 °F 27.5 °F 70% 30.09 in 10.0 mi SE 6.9 mph - N/A   Overcast
6:55 AM 36.5 °F 30.3 °F 27.5 °F 70% 30.09 in 10.0 mi ESE 8.1 mph - N/A   Overcast
7:15 AM 35.6 °F 29.2 °F 28.0 °F 74% 30.09 in 10.0 mi East 8.1 mph - N/A   Overcast
7:35 AM 35.8 °F 30.1 °F 28.9 °F 76% 30.10 in 10.0 mi ESE 6.9 mph - N/A   Overcast
7:55 AM 36.5 °F 30.3 °F 29.5 °F 76% 30.10 in 10.0 mi East 8.1 mph - N/A   Overcast
8:35 AM 36.9 °F 29.6 °F 29.7 °F 75% 30.10 in 10.0 mi East 10.4 mph - N/A   Overcast
8:55 AM 37.4 °F 29.8 °F 29.8 °F 74% 30.11 in 10.0 mi East 11.5 mph - N/A   Overcast
9:15 AM 38.1 °F 30.2 °F 29.5 °F 71% 30.11 in 10.0 mi East 12.7 mph - N/A   Overcast
9:35 AM 38.3 °F 30.5 °F 28.8 °F 69% 30.12 in 10.0 mi East 12.7 mph - N/A   Overcast
9:55 AM 39.2 °F 31.6 °F 28.9 °F 67% 30.12 in 10.0 mi ESE 12.7 mph - N/A   Overcast
10:15 AM 40.8 °F 34.1 °F 29.3 °F 64% 30.12 in 10.0 mi ESE 11.5 mph - N/A   Overcast
10:35 AM 40.8 °F 34.1 °F 28.9 °F 63% 30.12 in 10.0 mi SE 11.5 mph 17.3 mph N/A   Overcast
10:55 AM 41.4 °F 34.0 °F 28.9 °F 61% 30.12 in 10.0 mi SE 13.8 mph - N/A   Overcast
11:15 AM 43.0 °F 36.0 °F 29.3 °F 59% 30.12 in 10.0 mi ESE 13.8 mph 18.4 mph N/A   Overcast
11:35 AM 44.6 °F 38.8 °F 30.0 °F 57% 30.12 in 10.0 mi SE 11.5 mph - N/A   Overcast
11:55 AM 45.1 °F 39.1 °F 30.4 °F 56% 30.12 in 10.0 mi SSE 12.7 mph - N/A   Overcast
12:15 PM 46.4 °F 41.5 °F 30.4 °F 54% 30.11 in 10.0 mi ESE 10.4 mph 18.4 mph N/A   Overcast
12:35 PM 45.9 °F 40.0 °F 30.2 °F 54% 30.11 in 10.0 mi SE 12.7 mph 17.3 mph N/A   Overcast
12:55 PM 46.4 °F 41.5 °F 30.2 °F 53% 30.11 in 10.0 mi ESE 10.4 mph - N/A   Overcast
1:15 PM 46.8 °F - 30.2 °F 53% 30.11 in 10.0 mi ESE 15.0 mph 20.7 mph N/A   Overcast
1:35 PM 46.4 °F 39.8 °F 30.2 °F 53% 30.10 in 10.0 mi ESE 16.1 mph 20.7 mph N/A   Overcast
1:55 PM 46.4 °F 40.1 °F 30.7 °F 54% 30.10 in 10.0 mi ESE 15.0 mph 20.7 mph N/A   Overcast
2:15 PM 45.5 °F 39.9 °F 30.9 °F 57% 30.10 in 10.0 mi ESE 11.5 mph - N/A   Overcast
2:35 PM 45.7 °F 40.6 °F 31.1 °F 57% 30.10 in 10.0 mi SE 10.4 mph - N/A   Overcast
2:55 PM 45.7 °F 40.2 °F 31.1 °F 57% 30.09 in 10.0 mi ESE 11.5 mph - N/A   Overcast
3:15 PM 45.9 °F 40.8 °F 31.1 °F 56% 30.09 in 10.0 mi ESE 10.4 mph 18.4 mph N/A   Overcast
3:35 PM 46.0 °F 40.2 °F 30.9 °F 56% 30.09 in 10.0 mi ESE 12.7 mph 18.4 mph N/A   Overcast
3:55 PM 45.7 °F 40.2 °F 30.7 °F 56% 30.09 in 10.0 mi ESE 11.5 mph 20.7 mph N/A   Overcast
4:15 PM 44.6 °F 39.2 °F 30.7 °F 58% 30.09 in 10.0 mi ESE 10.4 mph 18.4 mph N/A   Overcast
4:35 PM 43.7 °F 37.7 °F 30.2 °F 59% 30.09 in 10.0 mi ESE 11.5 mph - N/A   Overcast
4:55 PM 43.7 °F 37.7 °F 30.4 °F 59% 30.09 in 10.0 mi ESE 11.5 mph - N/A   Overcast
5:15 PM 43.0 °F 36.4 °F 29.8 °F 60% 30.09 in 10.0 mi ESE 12.7 mph - N/A   Overcast
5:35 PM 43.0 °F 38.2 °F 30.0 °F 60% 30.10 in 10.0 mi ESE 8.1 mph - N/A   Overcast
5:55 PM 42.3 °F 36.3 °F 30.0 °F 62% 30.10 in 10.0 mi ESE 10.4 mph - N/A   Overcast
6:15 PM 41.7 °F 35.6 °F 30.0 °F 63% 30.10 in 10.0 mi ESE 10.4 mph - N/A   Overcast
6:35 PM 41.2 °F 35.5 °F 30.0 °F 65% 30.11 in 10.0 mi SE 9.2 mph - N/A   Overcast
6:55 PM 40.6 °F 34.8 °F 30.2 °F 66% 30.11 in 10.0 mi SSE 9.2 mph - N/A   Overcast
7:15 PM 39.7 °F 34.9 °F 30.9 °F 71% 30.12 in 10.0 mi SSE 6.9 mph - N/A   Overcast
7:35 PM 39.6 °F 33.0 °F 30.7 °F 71% 30.12 in 10.0 mi SE 10.4 mph - N/A   Overcast
7:55 PM 39.2 °F 32.5 °F 30.9 °F 72% 30.13 in 10.0 mi SE 10.4 mph - N/A   Overcast
8:15 PM 37.8 °F 31.3 °F 32.0 °F 80% 30.13 in 10.0 mi SE 9.2 mph - N/A   Overcast
8:35 PM 37.4 °F 31.4 °F 32.0 °F 81% 30.14 in 10.0 mi SE 8.1 mph - N/A   Overcast
8:55 PM 36.7 °F 30.5 °F 32.0 °F 83% 30.15 in 10.0 mi SE 8.1 mph - N/A   Overcast
9:15 PM 36.1 °F 29.3 °F 32.4 °F 86% 30.16 in 10.0 mi SE 9.2 mph - N/A   Overcast
9:35 PM 35.2 °F 28.8 °F 32.9 °F 91% 30.16 in 10.0 mi SE 8.1 mph - N/A   Overcast
9:55 PM 34.7 °F 28.1 °F 32.9 °F 93% 30.16 in 10.0 mi SE 8.1 mph - N/A   Overcast
10:15 PM 34.7 °F 28.1 °F 32.9 °F 93% 30.15 in 10.0 mi SE 8.1 mph - N/A   Overcast
10:35 PM 34.3 °F 27.7 °F 33.1 °F 95% 30.15 in 10.0 mi SE 8.1 mph - N/A   Overcast
10:55 PM 34.3 °F 28.4 °F 32.9 °F 94% 30.15 in 10.0 mi SE 6.9 mph - N/A   Overcast
11:15 PM 34.2 °F 27.5 °F 32.9 °F 95% 30.14 in 10.0 mi SE 8.1 mph - N/A   Overcast
11:35 PM 33.6 °F 27.5 °F 32.4 °F 95% 30.14 in 10.0 mi SE 6.9 mph - N/A   Overcast
11:55 PM 33.3 °F 26.4 °F 32.4 °F 96% 30.13 in 10.0 mi SE 8.1 mph - N/A   Overcast